User: anonymous   Login
Location: *
(49.3500°N, 12.6000°E)
Time: 17:01:48
(UTC+00:00)
Language:

STARLINK-41 - Orbit

View from above orbital plane
View from above orbital plane
View from above satellite
View from above satellite

Ground track
Ground track

The orbit data is extracted from the following two-line orbital elements,

1 44277U 19029AU  19340.58334491  .00719091  00000-0  44202-1 0  9999
2 44277  53.0014   9.8915 0001481  95.9446 311.0877 15.07358462 29753
Epoch (UTC): 06 December 2019 14:00:01
Eccentricity: 0.0001481
inclination: 53.0014°
perigee height: 543 km
apogee height: 545 km
right ascension of ascending node: 9.8915°
argument of perigee: 95.9446°
revolutions per day: 15.07358462
mean anomaly at epoch: 311.0877°
orbit number at epoch: 2975

The dashed part of the orbit path shows where the satellite is in the earth's shadow,  

DLR